User: anonymous   Login
Location: Go?cza
(50.3372°N, 19.9313°E)
Time: 20:30:02
(UTC+00:00)
Language:

CZ-2C R/B - Orbit

View from above orbital plane
View from above orbital plane
View from above satellite
View from above satellite

Ground track
Ground track

The orbit data is extracted from the following two-line orbital elements,

1 36089U 09061B   24199.48446528  .00001500  00000-0  37489-3 0  9998
2 36089  98.3603 165.1769 0080160  23.9374 336.5515 14.51083113776550
Epoch (UTC): 17 July 2024 11:37:37
Eccentricity: 0.0080160
inclination: 98.3603°
perigee height: 665 km
apogee height: 779 km
right ascension of ascending node: 165.1769°
argument of perigee: 23.9374°
revolutions per day: 14.51083113
mean anomaly at epoch: 336.5515°
orbit number at epoch: 77655

The dashed part of the orbit path shows where the satellite is in the earth's shadow,  

DLR